KC5DAQ-26 Weather Reports


Display with metric or nautical units.
time (UTC)temp
F
wind
direction
speed
MPH
gust
MPH
rain 1hr
in
rain 24hr
in
rain mn
in
humidity
%
barometer
mb
20260502180436 72 71 7.0 15.0 0.00 0.98 0.00 53 1023.5
20260502180338 72 62 7.0 15.0 0.00 0.99 0.00 54 1023.5
20260502180236 72 68 7.0 15.0 0.00 1.00 0.00 52 1023.5
20260502180135 72 92 7.0 15.0 0.00 1.00 0.00 52 1023.5
20260502170437 71 65 6.0 14.0 0.00 1.21 0.00 59 1023.7
20260502170334 71 61 4.0 12.0 0.00 1.21 0.00 59 1023.7
20260502170234 70 58 6.0 14.0 0.00 1.21 0.00 58 1023.7
20260502170134 70 47 7.0 14.0 0.00 1.21 0.00 56 1023.8
20260502164334 69 1 6.0 14.0 0.00 1.23 0.00 62 1023.7
20260502164234 69 59 7.0 15.0 0.00 1.23 0.00 62 1023.8
20260502164135 69 35 10.0 16.0 0.00 1.23 0.00 64 1023.7
20260502164034 69 31 6.0 16.0 0.00 1.23 0.00 64 1023.8
20260502163933 69 31 6.0 16.0 0.00 1.23 0.00 64 1023.8
20260502163834 69 31 6.0 16.0 0.00 1.24 0.00 64 1023.7
20260502163734 69 30 6.0 16.0 0.00 1.24 0.00 64 1023.8
20260502163635 69 10 8.0 16.0 0.00 1.24 0.00 65 1023.8
20260502163534 69 1 9.0 16.0 0.00 1.24 0.00 63 1023.8
20260502163434 69 20 10.0 16.0 0.00 1.24 0.00 63 1023.9
20260502163333 69 7 10.0 16.0 0.00 1.25 0.00 63 1023.8
20260502163234 69 0 8.0 16.0 0.00 1.25 0.00 65 1023.8
20260502163134 69 10 6.0 13.0 0.00 1.25 0.00 66 1023.8
20260502163033 69 54 8.0 13.0 0.00 1.26 0.00 65 1023.8
20260502162935 69 61 7.0 13.0 0.00 1.26 0.00 65 1023.8
20260502162834 69 44 6.0 13.0 0.00 1.27 0.00 63 1023.8
20260502162734 69 21 7.0 14.0 0.00 1.28 0.00 63 1023.8
20260502162634 69 3 8.0 14.0 0.00 1.29 0.00 64 1023.8
20260502162533 69 1 10.0 14.0 0.00 1.30 0.00 64 1023.8
20260502162433 69 52 8.0 14.0 0.00 1.31 0.00 65 1023.9
20260502162334 68 1 6.0 14.0 0.00 1.32 0.00 66 1023.9
20260502162234 68 6 8.0 14.0 0.00 1.32 0.00 67 1023.8
20260502162133 68 39 8.0 14.0 0.00 1.34 0.00 66 1023.9
20260502162035 68 16 8.0 14.0 0.00 1.35 0.00 67 1023.8
20260502161935 68 42 9.0 14.0 0.00 1.35 0.00 68 1023.8
20260502161833 68 20 8.0 14.0 0.00 1.36 0.00 68 1023.8
20260502161733 68 58 7.0 14.0 0.00 1.36 0.00 68 1023.8
20260502161633 68 17 7.0 14.0 0.00 1.38 0.00 68 1023.8
20260502161535 68 38 8.0 14.0 0.00 1.38 0.00 68 1023.8
20260502161434 67 21 8.0 14.0 0.00 1.38 0.00 69 1023.8
20260502161333 67 27 8.0 14.0 0.00 1.38 0.00 69 1023.7
20260502161234 67 51 8.0 14.0 0.00 1.38 0.00 68 1023.7
20260502161133 67 31 8.0 14.0 0.00 1.38 0.00 68 1023.7
20260502161033 67 0 8.0 14.0 0.00 1.38 0.00 69 1023.6
20260502160932 67 4 9.0 15.0 0.00 1.39 0.00 69 1023.6
20260502160831 67 0 5.0 15.0 0.00 1.39 0.00 69 1023.6
20260502160733 67 1 7.0 15.0 0.00 1.39 0.00 69 1023.5
20260502160632 67 1 7.0 15.0 0.00 1.39 0.00 69 1023.6
20260502160533 67 1 7.0 15.0 0.00 1.40 0.00 69 1023.6
20260502160411 67 0 7.0 15.0 0.00 1.40 0.00 69 1023.6
20260502160311 67 20 7.0 15.0 0.00 1.41 0.00 69 1023.6
20260502160204 67 0 7.0 15.0 0.00 1.41 0.00 71 1023.6
20260502160104 67 0 10.0 18.0 0.00 1.41 0.00 70 1023.6
20260502152305 65 34 7.0 15.0 0.00 1.42 0.00 75 1023.5
20260502152203 65 37 7.0 15.0 0.00 1.42 0.00 75 1023.6
20260502152102 65 56 7.0 15.0 0.00 1.42 0.00 75 1023.6
20260502152002 65 49 7.0 14.0 0.00 1.42 0.00 75 1023.6
20260502151903 65 14 7.0 14.0 0.00 1.42 0.00 75 1023.6
20260502151758 65 0 7.0 14.0 0.00 1.42 0.00 75 1023.7
20260502151659 65 47 6.0 14.0 0.00 1.42 0.00 74 1023.6
20260502151552 65 38 8.0 14.0 0.00 1.42 0.00 74 1023.7
20260502151450 65 56 7.0 16.0 0.00 1.42 0.00 74 1023.7
20260502151349 65 48 6.0 16.0 0.00 1.42 0.00 74 1023.6
20260502151248 65 62 6.0 16.0 0.00 1.42 0.00 74 1023.5
20260502151145 65 65 6.0 16.0 0.00 1.42 0.00 75 1023.6
20260502151041 65 59 8.0 16.0 0.00 1.42 0.00 75 1023.6
20260502150939 65 54 8.0 16.0 0.00 1.42 0.00 74 1023.5
20260502150833 65 34 9.0 16.0 0.00 1.42 0.00 75 1023.6
20260502150732 65 23 9.0 16.0 0.00 1.42 0.00 75 1023.6
20260502150629 65 0 8.0 16.0 0.00 1.42 0.00 75 1023.6
20260502150528 65 51 9.0 16.0 0.00 1.42 0.00 75 1023.7
20260502150426 65 1 10.0 16.0 0.00 1.42 0.00 75 1023.6
20260502150326 65 358 7.0 15.0 0.00 1.42 0.00 76 1023.7
20260502150223 64 18 6.0 15.0 0.00 1.42 0.00 76 1023.6
20260502150123 64 24 8.0 15.0 0.00 1.42 0.00 76 1023.6
20260502130730 56 8 5.0 9.0 0.00 1.58 0.00 92 1022.5
20260502130631 56 8 5.0 9.0 0.00 1.58 0.00 92 1022.5
20260502130530 56 8 5.0 9.0 0.00 1.58 0.00 92 1022.4
20260502130404 56 17 6.0 9.0 0.00 1.58 0.00 93 1022.4
20260502130303 56 21 6.0 9.0 0.00 1.58 0.00 93 1022.4
20260502130202 56 8 5.0 9.0 0.00 1.58 0.00 93 1022.4
20260502123802 54 48 4.0 6.0 0.00 1.59 0.00 93 1022.1
20260502123702 54 24 4.0 5.0 0.00 1.59 0.00 93 1022.0
20260502123603 54 10 4.0 6.0 0.00 1.59 0.00 93 1022.1
20260502123502 54 8 4.0 6.0 0.00 1.59 0.00 93 1022.0
20260502123402 54 0 3.0 6.0 0.00 1.59 0.00 93 1022.0
20260502123303 54 0 2.0 6.0 0.00 1.59 0.00 93 1022.0
20260502123202 54 10 2.0 6.0 0.00 1.60 0.00 93 1022.0
20260502123103 54 8 3.0 6.0 0.00 1.60 0.00 93 1022.0
20260502123004 54 10 4.0 6.0 0.00 1.60 0.00 93 1022.0
20260502122904 54 7 4.0 7.0 0.00 1.60 0.00 93 1021.9
20260502122802 54 358 4.0 9.0 0.00 1.60 0.00 93 1022.0
20260502122702 54 8 4.0 9.0 0.00 1.60 0.00 93 1021.9
20260502122604 54 0 4.0 9.0 0.00 1.60 0.00 93 1021.9
20260502122502 54 0 4.0 9.0 0.00 1.60 0.00 93 1021.8
20260502122402 54 8 3.0 9.0 0.00 1.60 0.00 93 1021.8
20260502122306 54 18 3.0 9.0 0.00 1.60 0.00 93 1021.8
20260502122203 54 20 4.0 9.0 0.00 1.60 0.00 93 1021.8
20260502122102 54 6 4.0 9.0 0.00 1.60 0.00 93 1021.7
20260502122004 54 7 5.0 9.0 0.00 1.60 0.00 93 1021.7
20260502121904 54 0 5.0 9.0 0.00 1.60 0.00 93 1021.8
20260502121803 54 0 4.0 5.0 0.00 1.60 0.00 93 1021.9
20260502121703 54 353 4.0 5.0 0.00 1.60 0.00 93 1021.8
20260502121603 54 0 3.0 5.0 0.00 1.60 0.00 93 1021.8
20260502121503 54 0 3.0 5.0 0.00 1.60 0.00 93 1021.7
20260502121403 54 41 2.0 4.0 0.00 1.60 0.00 93 1021.8
20260502121303 54 41 3.0 4.0 0.00 1.60 0.00 93 1021.8
20260502121204 54 41 2.0 4.0 0.00 1.60 0.00 93 1021.9
20260502121103 54 41 2.0 4.0 0.00 1.60 0.00 93 1021.8
20260502121002 54 0 2.0 4.0 0.00 1.60 0.00 93 1021.8
20260502120904 54 0 2.0 3.0 0.00 1.60 0.00 93 1021.8
20260502120802 54 0 2.0 3.0 0.00 1.60 0.00 93 1021.8
20260502120701 54 0 2.0 3.0 0.00 1.60 0.00 93 1021.8
20260502120602 53 0 1.0 2.0 0.00 1.60 0.00 93 1021.8
20260502120505 53 0 1.0 2.0 0.00 1.60 0.00 93 1021.8
20260502120404 53 0 1.0 2.0 0.00 1.60 0.00 93 1021.8
20260502120302 53 0 1.0 3.0 0.00 1.60 0.00 93 1021.7
20260502120203 53 0 0.0 3.0 0.00 1.60 0.00 93 1021.7
20260502115904 53 0 0.0 3.0 0.00 1.60 0.00 93 1021.7
20260502115803 53 0 0.0 3.0 0.00 1.60 0.00 93 1021.7
20260502115703 53 0 0.0 3.0 0.00 1.60 0.00 93 1021.6
20260502115602 53 0 1.0 3.0 0.00 1.60 0.00 93 1021.7
20260502115504 53 0 1.0 3.0 0.00 1.60 0.00 93 1021.6
20260502115402 53 0 2.0 3.0 0.00 1.60 0.00 93 1021.6
20260502115306 53 354 1.0 4.0 0.00 1.60 0.00 93 1021.6
20260502115203 53 354 1.0 4.0 0.00 1.60 0.00 93 1021.6
20260502115104 53 354 1.0 4.0 0.00 1.60 0.00 93 1021.5
20260502115004 53 354 1.0 4.0 0.00 1.60 0.00 93 1021.6
20260502114833 53 354 1.0 6.0 0.00 1.60 0.00 93 1021.5
20260502114731 53 354 2.0 6.0 0.00 1.60 0.00 93 1021.5
20260502114631 53 354 2.0 6.0 0.00 1.60 0.00 93 1021.5
20260502114531 53 355 2.0 6.0 0.00 1.60 0.00 93 1021.5
20260502114431 53 355 1.0 6.0 0.00 1.60 0.00 93 1021.5
20260502114332 53 0 1.0 6.0 0.00 1.60 0.00 93 1021.3
20260502114231 53 0 2.0 6.0 0.00 1.60 0.00 93 1021.3
20260502114131 53 0 2.0 6.0 0.00 1.60 0.00 93 1021.4
20260502114032 53 0 3.0 6.0 0.00 1.60 0.00 93 1021.3
20260502113930 53 355 3.0 6.0 0.00 1.60 0.00 93 1021.3
20260502113831 53 0 4.0 5.0 0.00 1.60 0.00 92 1021.3
20260502113731 53 0 2.0 5.0 0.00 1.60 0.00 92 1021.3
20260502113631 53 0 2.0 5.0 0.00 1.60 0.00 92 1021.3
20260502113531 53 0 2.0 9.0 0.00 1.60 0.00 92 1021.3
20260502113431 53 0 2.0 9.0 0.00 1.60 0.00 92 1021.3
20260502113331 53 0 1.0 9.0 0.00 1.60 0.00 92 1021.3
20260502113231 53 0 1.0 9.0 0.00 1.60 0.00 92 1021.3
20260502113131 53 0 2.0 9.0 0.00 1.60 0.00 92 1021.2
20260502113033 53 357 2.0 9.0 0.00 1.60 0.00 92 1021.2
20260502112932 53 357 2.0 9.0 0.00 1.60 0.00 92 1021.2
20260502112831 53 357 2.0 9.0 0.00 1.60 0.00 92 1021.3
20260502112732 54 23 3.0 9.0 0.00 1.60 0.00 92 1021.2
20260502112632 54 323 3.0 9.0 0.00 1.60 0.00 92 1021.2
20260502112532 54 357 2.0 5.0 0.00 1.60 0.00 92 1021.1
20260502112431 54 0 2.0 5.0 0.00 1.60 0.00 92 1021.2
20260502112332 54 8 2.0 5.0 0.00 1.60 0.00 92 1021.2
20260502112231 54 348 2.0 5.0 0.00 1.60 0.00 92 1021.1
20260502112131 54 347 2.0 5.0 0.00 1.60 0.00 92 1021.1
20260502112031 54 0 2.0 6.0 0.00 1.60 0.00 92 1021.1
20260502111933 54 0 3.0 6.0 0.00 1.60 0.00 92 1021.2
20260502111828 54 0 2.0 6.0 0.00 1.60 0.00 92 1021.1
20260502111726 54 0 1.0 6.0 0.00 1.60 0.00 92 1021.2
20260502111627 54 0 0.0 6.0 0.00 1.60 0.00 92 1021.1
20260502111527 54 0 0.0 6.0 0.00 1.60 0.00 92 1021.1
20260502111428 54 0 1.0 6.0 0.00 1.60 0.00 92 1021.0
20260502111327 54 0 3.0 6.0 0.00 1.60 0.00 92 1021.0
20260502111226 54 0 4.0 6.0 0.00 1.60 0.00 92 1021.1
20260502111127 54 18 4.0 6.0 0.00 1.60 0.00 92 1021.1
20260502111027 54 0 4.0 6.0 0.00 1.61 0.00 92 1021.1
20260502110927 54 3 3.0 6.0 0.00 1.61 0.00 92 1021.1
20260502110828 54 10 3.0 6.0 0.00 1.61 0.00 92 1021.1
20260502110727 54 10 4.0 6.0 0.00 1.61 0.00 92 1021.1
20260502110629 54 10 4.0 6.0 0.00 1.61 0.00 92 1021.1
20260502110527 54 10 3.0 6.0 0.00 1.62 0.00 92 1021.0
20260502110427 54 0 3.0 6.0 0.00 1.62 0.00 92 1021.1
20260502110327 54 0 3.0 6.0 0.00 1.62 0.00 92 1021.1
20260502110227 54 0 4.0 6.0 0.00 1.62 0.00 92 1021.0
20260502110127 54 3 4.0 6.0 0.00 1.62 0.00 92 1021.0
20260502110027 54 7 4.0 6.0 0.00 1.62 0.00 92 1021.0
20260502105926 54 37 3.0 6.0 0.00 1.62 0.00 92 1021.0
20260502105827 54 24 2.0 6.0 0.00 1.62 0.00 92 1020.9
20260502105727 54 16 1.0 6.0 0.00 1.62 0.00 92 1020.9
20260502105628 54 14 3.0 6.0 0.00 1.62 0.00 92 1020.9
20260502105527 54 14 3.0 6.0 0.00 1.62 0.00 92 1020.9
20260502105428 54 14 3.0 6.0 0.00 1.62 0.00 92 1020.9
20260502105327 54 14 3.0 6.0 0.00 1.62 0.00 92 1020.9
20260502105227 54 7 3.0 6.0 0.00 1.62 0.00 92 1020.9
20260502105126 54 44 3.0 6.0 0.00 1.63 0.00 92 1020.8
20260502105025 54 45 4.0 6.0 0.00 1.63 0.00 92 1020.8
20260502104927 54 11 4.0 6.0 0.00 1.63 0.00 92 1020.8
20260502104826 54 0 3.0 6.0 0.00 1.63 0.00 92 1020.8
20260502104725 54 0 3.0 6.0 0.00 1.63 0.00 92 1020.9
20260502104627 54 6 4.0 9.0 0.00 1.63 0.00 92 1020.9
20260502104526 54 4 5.0 9.0 0.00 1.63 0.00 92 1020.8
20260502104426 54 10 4.0 9.0 0.00 1.63 0.00 92 1020.9
20260502104326 54 11 3.0 9.0 0.00 1.63 0.00 92 1020.9
20260502104227 54 0 2.0 9.0 0.00 1.63 0.00 92 1020.8
20260502104125 54 0 1.0 9.0 0.00 1.63 0.00 92 1020.9
20260502104026 54 0 3.0 9.0 0.00 1.63 0.00 92 1020.9
20260502103927 54 0 4.0 9.0 0.00 1.63 0.00 92 1020.8
20260502103826 54 0 5.0 9.0 0.00 1.63 0.00 92 1020.9
20260502103726 54 11 5.0 9.0 0.00 1.64 0.00 92 1020.8
20260502103628 54 0 4.0 9.0 0.00 1.64 0.00 92 1020.8
20260502103527 54 16 4.0 9.0 0.00 1.64 0.00 92 1020.8
20260502103426 54 0 5.0 9.0 0.00 1.64 0.00 92 1020.8
20260502103325 54 4 5.0 9.0 0.00 1.64 0.00 92 1020.8
20260502103226 54 357 4.0 9.0 0.00 1.64 0.00 92 1020.8
20260502103125 54 1 4.0 9.0 0.00 1.64 0.00 92 1020.8
20260502103025 54 8 5.0 9.0 0.00 1.64 0.00 92 1020.7
20260502102926 54 10 6.0 9.0 0.00 1.64 0.00 92 1020.8
20260502102826 54 13 5.0 7.0 0.00 1.64 0.00 92 1020.7
20260502102726 54 4 3.0 6.0 0.00 1.64 0.00 92 1020.7
20260502102626 54 11 3.0 6.0 0.00 1.64 0.00 92 1020.7
20260502102526 54 18 2.0 6.0 0.00 1.64 0.00 92 1020.8
20260502102427 54 11 2.0 7.0 0.00 1.64 0.00 92 1020.7
20260502102325 54 11 3.0 7.0 0.00 1.64 0.00 92 1020.6
20260502102225 54 17 3.0 9.0 0.00 1.64 0.00 92 1020.7
20260502102126 54 0 2.0 9.0 0.00 1.65 0.00 92 1020.7
20260502102025 54 0 2.0 9.0 0.00 1.65 0.00 92 1020.6
20260502101926 54 0 2.0 9.0 0.00 1.65 0.00 92 1020.7
20260502101826 54 0 2.0 9.0 0.00 1.65 0.00 92 1020.6
20260502101725 54 334 3.0 9.0 0.00 1.65 0.00 92 1020.6
20260502101626 54 333 5.0 10.0 0.00 1.65 0.00 92 1020.6
20260502101525 54 0 5.0 10.0 0.00 1.65 0.00 92 1020.6
20260502101427 54 13 5.0 10.0 0.00 1.65 0.00 92 1020.5
20260502101328 54 39 5.0 10.0 0.00 1.65 0.00 92 1020.5
20260502101226 54 358 5.0 10.0 0.00 1.65 0.00 92 1020.5
20260502101125 54 338 5.0 10.0 0.00 1.65 0.00 92 1020.4
20260502101026 54 0 4.0 10.0 0.00 1.65 0.00 92 1020.3
20260502100925 54 0 5.0 10.0 0.00 1.65 0.00 92 1020.3
20260502100825 54 0 6.0 10.0 0.00 1.65 0.00 92 1020.2
20260502100726 54 0 6.0 10.0 0.00 1.65 0.00 92 1020.3
20260502100626 54 7 5.0 10.0 0.00 1.66 0.00 92 1020.2
20260502100525 54 0 4.0 6.0 0.00 1.67 0.00 92 1020.2
20260502100427 54 1 4.0 7.0 0.00 1.68 0.00 92 1020.1
20260502100325 54 1 4.0 7.0 0.00 1.69 0.00 92 1020.1
20260502100226 54 6 4.0 7.0 0.00 1.70 0.00 92 1020.1
20260502100126 54 4 3.0 7.0 0.00 1.70 0.00 92 1020.1
20260502091525 55 49 0.0 3.0 0.00 2.05 0.00 91 1019.5
20260502091423 55 49 0.0 3.0 0.00 2.05 0.00 91 1019.5
20260502091325 55 49 0.0 3.0 0.00 2.05 0.00 91 1019.5
20260502091220 55 49 0.0 3.0 0.00 2.05 0.00 91 1019.5
20260502091118 55 49 1.0 3.0 0.00 2.06 0.00 91 1019.4
20260502091015 55 49 2.0 4.0 0.00 2.06 0.00 91 1019.4
20260502090916 55 49 2.0 4.0 0.00 2.06 0.00 91 1019.4
20260502090815 55 49 1.0 5.0 0.00 2.06 0.00 91 1019.4
20260502090713 55 30 1.0 5.0 0.00 2.06 0.00 91 1019.3
20260502090612 55 30 1.0 5.0 0.00 2.06 0.00 91 1019.3
20260502090510 55 30 2.0 5.0 0.00 2.06 0.00 91 1019.4
20260502090409 55 30 1.0 6.0 0.00 2.06 0.00 91 1019.3
20260502090307 55 30 2.0 7.0 0.00 2.06 0.00 91 1019.3
20260502090205 55 30 2.0 7.0 0.00 2.06 0.00 91 1019.2
20260502090106 55 28 3.0 7.0 0.00 2.07 0.00 91 1019.2
20260502071522 55 75 4.0 11.0 0.00 2.39 0.00 93 1019.2
20260502071423 55 55 5.0 11.0 0.00 2.39 0.00 93 1019.1
20260502071321 55 69 5.0 11.0 0.00 2.39 0.00 93 1019.1
20260502071222 55 34 4.0 11.0 0.00 2.39 0.00 93 1019.1
20260502071122 55 58 5.0 11.0 0.00 2.39 0.00 93 1019.2
20260502071021 55 62 5.0 11.0 0.00 2.39 0.00 93 1019.2
20260502070920 55 44 5.0 11.0 0.00 2.39 0.00 93 1019.2
20260502070819 55 42 6.0 11.0 0.00 2.39 0.00 93 1019.2
20260502070709 55 41 5.0 16.0 0.00 2.39 0.00 93 1019.3
20260502070606 55 34 4.0 16.0 0.00 2.39 0.00 93 1019.3
20260502070506 55 51 4.0 16.0 0.00 2.39 0.00 93 1019.3
20260502070404 55 68 4.0 16.0 0.00 2.39 0.00 93 1019.3
20260502070304 55 35 4.0 16.0 0.00 2.39 0.00 93 1019.2
20260502070205 55 41 4.0 16.0 0.00 2.39 0.00 93 1019.2
20260502070104 55 55 5.0 16.0 0.00 2.39 0.00 93 1019.2
20260502070002 55 17 6.0 16.0 0.00 2.39 0.00 93 1019.2
20260502065902 55 47 8.0 16.0 0.00 2.39 0.00 93 1019.2
20260502065803 55 32 9.0 16.0 0.00 2.39 0.00 93 1019.2
20260502065704 55 3 6.0 14.0 0.00 2.39 0.00 93 1019.1
20260502065604 55 32 6.0 11.0 0.00 2.39 0.00 93 1019.2
20260502065502 55 45 6.0 11.0 0.00 2.39 0.00 93 1019.2
20260502065404 55 45 5.0 11.0 0.00 2.39 0.00 93 1019.1
20260502065306 55 56 5.0 11.0 0.00 2.39 0.00 93 1019.1
20260502065205 55 54 5.0 11.0 0.00 2.39 0.00 93 1019.2
20260502065104 55 16 4.0 11.0 0.00 2.39 0.00 93 1019.1
20260502065002 55 52 5.0 11.0 0.00 2.39 0.00 93 1019.2
20260502064903 55 66 6.0 11.0 0.00 2.39 0.00 93 1019.1
20260502064803 55 61 6.0 10.0 0.00 2.39 0.00 93 1019.1
20260502064703 55 47 5.0 14.0 0.00 2.39 0.00 93 1019.0
20260502064605 55 35 4.0 14.0 0.00 2.39 0.00 93 1019.0
20260502064503 55 8 4.0 14.0 0.00 2.39 0.00 93 1019.0
20260502064403 55 17 4.0 14.0 0.00 2.39 0.00 93 1019.0
20260502064303 55 32 4.0 14.0 0.00 2.39 0.00 93 1019.0
20260502064203 55 47 4.0 14.0 0.00 2.39 0.00 93 1018.9
20260502064104 55 21 5.0 14.0 0.00 2.39 0.00 93 1019.0
20260502064005 55 48 5.0 14.0 0.00 2.39 0.00 93 1018.9
20260502063904 55 48 6.0 14.0 0.00 2.39 0.00 93 1019.0
20260502063802 55 28 8.0 14.0 0.00 2.39 0.00 93 1018.9
20260502063703 55 34 6.0 13.0 0.00 2.39 0.00 93 1018.9
20260502063602 55 48 5.0 13.0 0.00 2.39 0.00 94 1019.0
20260502063503 55 25 4.0 13.0 0.00 2.39 0.00 94 1019.0
20260502063404 55 8 4.0 13.0 0.00 2.39 0.00 94 1019.0
20260502063301 55 41 6.0 13.0 0.00 2.39 0.00 94 1019.0
20260502063202 55 39 7.0 13.0 0.00 2.39 0.00 94 1019.0
20260502063103 55 24 7.0 13.0 0.00 2.39 0.00 94 1019.0
20260502063006 55 39 7.0 13.0 0.00 2.39 0.00 94 1019.0
20260502062902 55 11 7.0 13.0 0.00 2.39 0.00 94 1019.0
20260502062804 56 47 6.0 13.0 0.00 2.39 0.00 94 1019.1
20260502062705 55 16 6.0 13.0 0.00 2.39 0.00 94 1019.0
20260502062603 55 17 6.0 13.0 0.00 2.39 0.00 94 1019.1
20260502062503 55 25 6.0 13.0 0.00 2.39 0.00 94 1019.0
20260502062402 55 0 7.0 13.0 0.00 2.39 0.00 94 1019.0
20260502062305 55 55 7.0 13.0 0.00 2.39 0.00 94 1019.0
20260502062203 56 7 7.0 13.0 0.00 2.39 0.00 94 1018.9
20260502062103 56 0 7.0 13.0 0.00 2.39 0.00 94 1019.0
20260502062003 56 61 8.0 13.0 0.00 2.39 0.00 94 1018.9
20260502061903 56 10 6.0 13.0 0.00 2.39 0.00 94 1019.1
20260502061801 56 0 5.0 11.0 0.00 2.39 0.00 94 1019.0
20260502061703 56 25 4.0 11.0 0.00 2.39 0.00 94 1019.0
20260502061602 56 47 3.0 11.0 0.00 2.40 0.00 94 1019.0
20260502061504 56 39 4.0 11.0 0.00 2.40 0.00 94 1019.0
20260502061404 56 38 6.0 11.0 0.00 2.40 0.00 94 1019.0
20260502061303 56 45 6.0 11.0 0.00 2.40 0.00 94 1018.9
20260502061203 56 75 5.0 10.0 0.00 2.40 0.00 94 1018.9
20260502061102 56 30 6.0 10.0 0.00 2.40 0.00 94 1018.9
20260502061004 56 39 5.0 10.0 0.00 2.40 0.00 94 1018.9
20260502060903 56 61 6.0 11.0 0.00 2.40 0.00 94 1018.9
20260502060803 56 38 6.0 12.0 0.00 2.41 0.00 94 1018.9
20260502060703 56 0 5.0 13.0 0.00 2.41 0.00 94 1018.9
20260502060604 56 24 4.0 13.0 0.00 2.41 0.00 94 1018.9
20260502060458 56 30 4.0 13.0 0.00 2.41 0.00 94 1019.0
20260502060356 56 44 4.0 14.0 0.00 2.41 0.00 94 1018.9
20260502060254 56 8 5.0 14.0 0.00 2.41 0.00 94 1018.9
20260502060154 56 32 5.0 14.0 0.00 2.42 0.00 94 1018.9
20260502060052 56 49 6.0 14.0 0.00 2.42 0.00 94 1018.9
20260502055944 56 44 8.0 14.0 0.00 2.42 0.00 94 1018.9
20260502055842 56 47 8.0 14.0 0.00 2.42 0.00 94 1018.9
20260502055742 56 18 7.0 14.0 0.00 2.42 0.00 94 1019.0
20260502055641 56 48 6.0 15.0 0.00 2.42 0.00 94 1018.9
20260502055537 56 58 6.0 15.0 0.00 2.42 0.00 94 1018.8
20260502055435 56 61 8.0 15.0 0.00 2.42 0.00 94 1018.9
20260502055335 56 52 6.0 15.0 0.00 2.42 0.00 94 1018.9
20260502055231 56 41 6.0 15.0 0.00 2.42 0.00 94 1018.9
20260502055133 56 131 8.0 15.0 0.00 2.42 0.00 94 1018.9
20260502055033 56 45 6.0 15.0 0.00 2.42 0.00 94 1018.9
20260502054931 56 7 7.0 15.0 0.00 2.42 0.00 94 1018.9
20260502054832 56 45 8.0 15.0 0.00 2.42 0.00 94 1018.8
20260502054733 56 27 8.0 15.0 0.00 2.43 0.00 94 1018.8
20260502054631 56 42 8.0 14.0 0.00 2.43 0.00 94 1018.8
20260502054534 56 25 9.0 14.0 0.00 2.43 0.00 94 1018.9
20260502054433 56 23 10.0 14.0 0.00 2.43 0.00 94 1018.8
20260502054332 56 35 8.0 14.0 0.00 2.44 0.00 95 1018.8
20260502054232 56 58 5.0 11.0 0.00 2.44 0.00 95 1018.8
20260502054132 56 27 4.0 13.0 0.00 2.45 0.00 95 1018.8
20260502054032 56 32 4.0 13.0 0.00 2.46 0.00 95 1018.9
20260502053931 56 61 5.0 13.0 0.00 2.47 0.00 95 1018.9
20260502053832 56 58 4.0 13.0 0.00 2.49 0.00 95 1018.9
20260502053731 56 23 5.0 13.0 0.00 2.52 0.00 95 1018.9
20260502053632 56 35 6.0 13.0 0.00 2.52 0.00 95 1018.8
20260502053533 56 24 6.0 13.0 0.00 2.54 0.00 95 1018.8
20260502053432 56 23 7.0 13.0 0.00 2.56 0.00 95 1018.8
20260502053331 56 54 8.0 13.0 0.00 2.56 0.00 95 1018.9
20260502053231 56 39 7.0 13.0 0.00 2.56 0.00 95 1018.9
20260502053132 56 34 7.0 10.0 0.00 2.56 0.00 95 1018.9
20260502053032 56 38 6.0 10.0 0.00 2.56 0.00 95 1018.9
20260502052932 56 38 5.0 14.0 0.00 2.56 0.00 95 1018.9
20260502052832 56 55 6.0 14.0 0.00 2.57 0.00 95 1018.9
20260502052732 56 59 6.0 14.0 0.00 2.57 0.00 95 1018.9
20260502052627 56 24 6.0 14.0 0.00 2.57 0.00 95 1019.0
20260502052526 56 3 7.0 14.0 0.00 2.57 0.00 95 1019.0
20260502052422 56 21 5.0 14.0 0.00 2.58 0.00 95 1019.0
20260502052321 56 48 5.0 14.0 0.00 2.58 0.00 95 1019.0
20260502052220 56 49 6.0 14.0 0.00 2.58 0.00 95 1019.0
20260502052120 56 41 8.0 14.0 0.00 2.58 0.00 95 1018.9
20260502052010 56 55 7.0 14.0 0.00 2.60 0.00 95 1018.9
20260502051909 56 20 5.0 12.0 0.00 2.60 0.00 95 1018.9
20260502051806 56 0 5.0 12.0 0.00 2.60 0.00 95 1018.9
20260502051704 56 47 7.0 12.0 0.00 2.60 0.00 95 1018.9
20260502051604 56 48 7.0 12.0 0.00 2.61 0.00 95 1018.9
20260502051503 56 48 6.0 12.0 0.00 2.62 0.00 95 1018.9
20260502051402 56 16 6.0 12.0 0.00 2.63 0.00 95 1018.8
20260502051302 56 32 6.0 12.0 0.00 2.64 0.00 95 1018.9
20260502051202 56 61 6.0 13.0 0.00 2.66 0.00 95 1018.8
20260502051103 56 62 5.0 13.0 0.00 2.68 0.00 95 1018.9
20260502051002 56 37 4.0 13.0 0.00 2.68 0.00 95 1018.8
20260502050903 56 52 5.0 13.0 0.00 2.69 0.00 95 1018.8
20260502050803 56 3 6.0 13.0 0.00 2.69 0.00 95 1018.9
20260502050704 56 3 6.0 13.0 0.00 2.69 0.00 95 1018.9
20260502050604 56 3 6.0 13.0 0.00 2.69 0.00 95 1018.9
20260502050505 56 18 6.0 13.0 0.00 2.69 0.00 95 1018.8
20260502050402 56 55 6.0 13.0 0.00 2.69 0.00 95 1018.8
20260502050304 56 51 8.0 13.0 0.00 2.69 0.00 95 1018.9
20260502050204 56 25 7.0 12.0 0.00 2.69 0.00 95 1018.8
20260502050003 56 28 4.0 12.0 0.00 2.69 0.00 95 1018.8
20260502045902 56 63 5.0 12.0 0.00 2.69 2.68 95 1018.9
20260502045804 56 25 6.0 12.0 0.00 2.69 2.68 95 1018.9
20260502045703 56 38 8.0 12.0 0.00 2.69 2.68 95 1019.0
20260502045602 56 59 8.0 12.0 0.00 2.69 2.68 95 1018.9
20260502045503 56 23 7.0 12.0 0.00 2.69 2.68 95 1019.0
20260502045404 56 49 4.0 12.0 0.00 2.69 2.68 95 1018.9
20260502045305 56 41 4.0 12.0 0.00 2.69 2.68 96 1019.0
20260502045202 56 39 4.0 12.0 0.00 2.69 2.68 95 1019.0
20260502045103 56 62 4.0 12.0 0.00 2.69 2.68 95 1019.0
20260502045003 56 35 5.0 14.0 0.00 2.69 2.68 95 1019.1
20260502044902 56 51 7.0 14.0 0.00 2.69 2.68 95 1019.1
20260502044804 56 27 8.0 14.0 0.00 2.69 2.68 95 1019.0
20260502044702 56 16 7.0 14.0 0.00 2.69 2.68 95 1019.1
20260502044603 56 7 5.0 14.0 0.00 2.69 2.68 96 1019.1
20260502044503 56 52 4.0 14.0 0.00 2.69 2.68 96 1019.1
20260502044403 56 16 6.0 14.0 0.00 2.69 2.68 96 1019.0
20260502044304 56 21 6.0 14.0 0.00 2.69 2.68 96 1019.1
20260502044203 56 55 7.0 14.0 0.00 2.69 2.68 96 1019.0
20260502044104 56 58 8.0 14.0 0.00 2.69 2.68 96 1019.1
20260502044004 56 62 9.0 14.0 0.00 2.69 2.68 96 1019.1
20260502043903 56 8 10.0 14.0 0.00 2.69 2.68 96 1019.0
20260502043805 56 0 9.0 14.0 0.00 2.69 2.68 96 1019.1
20260502043704 56 0 9.0 14.0 0.00 2.69 2.68 96 1019.0
20260502043603 56 38 8.0 14.0 0.00 2.69 2.68 96 1019.0
20260502043503 56 1 7.0 14.0 0.00 2.69 2.68 96 1019.0
20260502043403 56 63 7.0 14.0 0.00 2.69 2.68 96 1019.0
20260502043302 56 35 6.0 14.0 0.00 2.69 2.68 96 1019.0
20260502043202 56 71 6.0 14.0 0.00 2.69 2.68 96 1018.9
20260502043103 56 58 9.0 14.0 0.00 2.69 2.68 96 1019.0
20260502043003 56 45 9.0 14.0 0.00 2.69 2.68 96 1018.9
20260502042902 56 34 7.0 14.0 0.00 2.69 2.68 96 1018.9
20260502042802 56 23 5.0 14.0 0.00 2.69 2.68 96 1018.9
20260502042703 56 51 5.0 14.0 0.00 2.69 2.68 96 1018.9
20260502042602 56 27 6.0 14.0 0.00 2.69 2.68 96 1018.9
20260502042503 56 48 8.0 15.0 0.00 2.69 2.68 96 1018.9
20260502042403 56 24 8.0 15.0 0.00 2.69 2.68 96 1018.9
20260502042306 56 56 8.0 15.0 0.00 2.69 2.68 96 1018.8
20260502042205 56 8 8.0 15.0 0.00 2.69 2.68 96 1018.9
20260502042103 56 32 6.0 15.0 0.00 2.69 2.68 96 1018.9
20260502042004 56 48 6.0 15.0 0.00 2.69 2.68 96 1018.9
20260502041903 56 25 6.0 15.0 0.00 2.69 2.68 96 1018.9
20260502041801 56 55 6.0 15.0 0.00 2.69 2.68 96 1018.9
20260502041703 56 13 8.0 15.0 0.00 2.69 2.68 96 1019.0
20260502041602 56 25 9.0 15.0 0.00 2.69 2.68 96 1019.0
20260502041503 56 0 7.0 14.0 0.00 2.69 2.68 96 1019.0
20260502041403 56 11 5.0 16.0 0.00 2.69 2.68 96 1019.0
20260502041303 56 47 5.0 16.0 0.00 2.69 2.68 96 1019.0
20260502041203 56 34 6.0 16.0 0.01 2.69 2.68 96 1019.1
20260502041101 56 21 6.0 16.0 0.01 2.69 2.68 96 1019.1
20260502041003 56 51 7.0 16.0 0.01 2.69 2.68 96 1019.0
20260502040903 56 27 7.0 16.0 0.01 2.69 2.68 96 1019.0
20260502040802 56 14 6.0 16.0 0.01 2.69 2.68 96 1019.0
20260502040703 56 10 8.0 16.0 0.01 2.69 2.68 96 1019.0
20260502040603 56 7 9.0 16.0 0.01 2.69 2.68 96 1019.0
20260502040504 56 27 9.0 16.0 0.01 2.69 2.68 96 1018.9
20260502040403 56 351 9.0 15.0 0.01 2.69 2.68 96 1018.9
20260502040303 56 37 9.0 15.0 0.01 2.69 2.68 96 1019.0
20260502040202 56 0 8.0 15.0 0.01 2.69 2.68 96 1018.9
20260502040104 0 42 7.0 13.0 0.01 2.69 2.68 1019.0
20260502040003 0 0.0 13.0 0.01 2.68 2.69 1018.9
20260502035904 0 0.0 13.0 0.01 2.68 2.69 1018.9
20260502035804 56 34 7.0 13.0 0.01 2.68 2.69 96 1018.8
20260502035704 56 34 7.0 13.0 0.01 2.68 2.69 96 1018.8
20260502035603 56 34 7.0 13.0 0.01 2.68 2.69 96 1018.7
20260502035504 56 34 7.0 13.0 0.01 2.68 2.69 96 1018.8
20260502035403 56 34 7.0 13.0 0.01 2.68 2.69 96 1018.7
20260502035306 56 48 7.0 13.0 0.01 2.68 2.69 96 1018.6
20260502035203 56 47 7.0 13.0 0.01 2.68 2.69 96 1018.6
20260502035102 56 6 6.0 12.0 0.01 2.68 2.69 96 1018.6
20260502035003 56 56 6.0 12.0 0.01 2.68 2.69 96 1018.6
20260502034903 56 347 6.0 12.0 0.01 2.68 2.69 96 1018.6
20260502034803 56 350 7.0 12.0 0.01 2.68 2.69 96 1018.5
20260502034703 56 25 7.0 12.0 0.01 2.68 2.69 96 1018.5
20260502034603 56 11 9.0 12.0 0.01 2.68 2.69 96 1018.5
20260502034503 56 32 9.0 12.0 0.01 2.68 2.69 96 1018.6
20260502034404 56 18 7.0 9.0 0.01 2.68 2.69 96 1018.6
20260502034304 56 3 6.0 9.0 0.01 2.68 2.69 96 1018.5
20260502034203 56 3 6.0 10.0 0.01 2.68 2.69 96 1018.5
20260502034103 56 3 6.0 12.0 0.01 2.68 2.69 96 1018.5
20260502034004 56 3 6.0 12.0 0.01 2.68 2.69 96 1018.5
20260502033903 56 3 6.0 12.0 0.01 2.68 2.69 96 1018.4
20260502033802 56 35 6.0 12.0 0.01 2.68 2.69 96 1018.5
20260502033702 56 17 6.0 12.0 0.01 2.68 2.69 96 1018.4
20260502033604 56 38 5.0 12.0 0.01 2.69 2.69 96 1018.4
20260502033502 56 11 5.0 12.0 0.02 2.69 2.69 96 1018.4
20260502033403 56 38 6.0 13.0 0.02 2.69 2.69 96 1018.4
20260502033304 56 38 7.0 13.0 0.02 2.69 2.69 96 1018.5
20260502033202 56 14 6.0 13.0 0.02 2.69 2.69 96 1018.5
20260502033102 56 6 5.0 13.0 0.02 2.69 2.69 96 1018.4
20260502033003 56 10 5.0 13.0 0.02 2.69 2.69 96 1018.4
20260502032903 56 28 5.0 13.0 0.02 2.69 2.69 96 1018.3
20260502032802 56 58 6.0 13.0 0.02 2.69 2.69 96 1018.2
20260502032702 56 25 7.0 13.0 0.02 2.69 2.69 96 1018.1
20260502032603 56 45 7.0 15.0 0.02 2.69 2.69 96 1018.1
20260502032502 56 39 7.0 15.0 0.02 2.69 2.69 96 1018.1
20260502032403 56 39 6.0 15.0 0.02 2.70 2.69 96 1018.1
20260502032306 56 34 7.0 20.0 0.02 2.70 2.69 96 1018.0
20260502032203 56 20 6.0 20.0 0.02 2.70 2.69 96 1018.0
20260502032105 56 1 6.0 20.0 0.02 2.70 2.69 96 1018.0
20260502032004 56 38 5.0 20.0 0.03 2.70 2.69 96 1018.0
20260502031903 56 30 7.0 20.0 0.03 2.70 2.69 96 1017.9
20260502031803 56 28 7.0 20.0 0.03 2.70 2.69 96 1017.8
20260502031703 56 38 6.0 20.0 0.03 2.70 2.69 96 1017.9
20260502031605 56 20 6.0 20.0 0.03 2.70 2.69 96 1017.7
20260502031503 56 16 8.0 20.0 0.03 2.70 2.69 96 1017.7
20260502031404 56 32 9.0 20.0 0.03 2.70 2.69 96 1017.7
20260502031303 56 25 6.0 14.0 0.03 2.70 2.68 96 1017.7
20260502031203 56 31 5.0 14.0 0.02 2.70 2.68 96 1017.6
20260502031101 56 49 6.0 14.0 0.02 2.70 2.68 96 1017.7
20260502030935 56 41 6.0 14.0 0.02 2.70 2.68 96 1017.7
20260502030832 56 13 7.0 14.0 0.02 2.70 2.68 96 1017.8
20260502030731 56 35 8.0 14.0 0.02 2.70 2.68 96 1017.8
20260502030632 56 55 7.0 14.0 0.02 2.70 2.68 96 1017.7
20260502030531 56 27 6.0 13.0 0.02 2.70 2.68 96 1017.8
20260502030431 56 20 7.0 12.0 0.02 2.70 2.68 96 1017.7
20260502030333 56 23 7.0 12.0 0.02 2.70 2.68 96 1017.6
20260502030231 56 8 7.0 11.0 0.02 2.70 2.68 96 1017.4
20260502030132 56 18 6.0 10.0 0.03 2.70 2.68 96 1017.3
20260502030032 56 72 5.0 10.0 0.03 2.67 2.68 96 1017.2
20260502025931 56 66 5.0 12.0 0.03 2.67 2.68 96 1017.2
20260502025831 56 47 6.0 16.0 0.03 2.67 2.68 96 1017.3
20260502025732 56 71 5.0 16.0 0.03 2.67 2.68 96 1017.5
20260502025632 56 17 6.0 16.0 0.03 2.67 2.68 96 1017.6
20260502025531 56 63 5.0 16.0 0.03 2.67 2.68 96 1017.6
20260502025432 56 16 5.0 16.0 0.03 2.67 2.68 96 1017.6
20260502025327 56 24 6.0 16.0 0.03 2.67 2.68 96 1017.6
20260502025224 56 49 5.0 16.0 0.03 2.67 2.68 96 1017.6
20260502025121 56 30 7.0 16.0 0.03 2.67 2.68 96 1017.6
20260502025021 56 42 10.0 16.0 0.03 2.67 2.68 96 1017.5
20260502024916 56 47 9.0 16.0 0.03 2.67 2.68 96 1017.4
20260502024816 56 28 5.0 15.0 0.03 2.67 2.68 96 1017.5
20260502024714 56 47 6.0 15.0 0.03 2.67 2.68 96 1017.4
20260502024614 56 31 6.0 15.0 0.03 2.67 2.68 96 1017.3
20260502024515 56 73 5.0 15.0 0.03 2.67 2.68 96 1017.3
20260502024413 56 31 6.0 15.0 0.03 2.67 2.68 96 1017.3
20260502024314 56 51 6.0 15.0 0.03 2.67 2.68 96 1017.2
20260502024215 56 38 8.0 15.0 0.03 2.67 2.68 96 1017.2
20260502024113 56 25 8.0 15.0 0.03 2.67 2.68 96 1017.2
20260502024015 56 6 8.0 15.0 0.03 2.67 2.68 96 1017.1
20260502023914 56 56 8.0 15.0 0.03 2.67 2.68 96 1017.2
20260502023814 56 42 8.0 15.0 0.03 2.67 2.68 96 1017.3
20260502023713 56 35 9.0 15.0 0.03 2.67 2.68 96 1017.3
20260502023613 56 25 10.0 15.0 0.03 2.67 2.68 96 1017.4
20260502023513 57 62 7.0 15.0 0.04 2.67 2.67 96 1017.4
20260502023413 57 17 5.0 13.0 0.03 2.67 2.67 96 1017.4
20260502023313 57 51 6.0 13.0 0.03 2.67 2.67 96 1017.5
20260502023214 57 0 7.0 13.0 0.03 2.67 2.67 96 1017.5
20260502023113 57 0 7.0 13.0 0.03 2.67 2.67 96 1017.5
20260502023014 57 31 7.0 13.0 0.03 2.67 2.67 96 1017.5
20260502022914 57 55 7.0 13.0 0.03 2.67 2.67 96 1017.5
20260502022815 57 18 7.0 13.0 0.04 2.67 2.67 96 1017.5
20260502022714 57 54 7.0 13.0 0.04 2.67 2.67 96 1017.5
20260502022614 57 38 6.0 13.0 0.04 2.67 2.67 96 1017.6
20260502022514 57 17 6.0 13.0 0.04 2.67 2.67 96 1017.6
20260502022413 57 1 6.0 13.0 0.04 2.67 2.67 96 1017.5
20260502022313 57 11 5.0 13.0 0.05 2.67 2.67 96 1017.5
20260502022214 57 58 5.0 13.0 0.05 2.67 2.67 96 1017.4
20260502022115 57 48 7.0 13.0 0.05 2.67 2.67 96 1017.4
20260502022014 57 0 8.0 13.0 0.04 2.67 2.66 96 1017.2
20260502021913 57 8 7.0 13.0 0.05 2.67 2.66 96 1017.2
20260502021814 57 31 7.0 13.0 0.05 2.67 2.66 96 1017.1
20260502021714 57 20 6.0 13.0 0.05 2.67 2.66 96 1017.1
20260502021613 57 16 7.0 13.0 0.05 2.67 2.66 96 1017.1
20260502021513 57 23 7.0 13.0 0.05 2.67 2.66 96 1017.2
20260502021414 57 38 7.0 13.0 0.05 2.67 2.66 96 1017.2
20260502021313 57 355 7.0 13.0 0.05 2.67 2.66 96 1017.2
20260502021212 57 6 7.0 13.0 0.06 2.67 2.66 96 1017.2
20260502021113 57 52 8.0 13.0 0.06 2.67 2.66 96 1017.2
20260502021013 57 13 7.0 13.0 0.06 2.67 2.66 96 1017.3
20260502020912 57 52 6.0 13.0 0.06 2.67 2.66 96 1017.3
20260502020813 57 44 7.0 13.0 0.06 2.67 2.66 96 1017.3
20260502020713 57 47 7.0 13.0 0.06 2.67 2.66 96 1017.2
20260502020612 57 42 8.0 13.0 0.06 2.67 2.66 96 1017.2
20260502020512 58 0 7.0 13.0 0.06 2.67 2.66 96 1017.2
20260502020415 58 0 7.0 13.0 0.06 2.67 2.66 96 1017.2
20260502020314 58 0 9.0 13.0 0.06 2.67 2.66 96 1017.2
20260502020213 58 11 8.0 13.0 0.05 2.67 2.65 96 1017.1
20260502020113 58 333 6.0 13.0 0.05 2.67 2.65 96 1017.2
20260502020012 58 17 5.0 11.0 0.05 2.62 2.65 96 1017.1
20260502015912 58 24 4.0 11.0 0.05 2.62 2.65 96 1017.0
20260502015813 58 6 5.0 11.0 0.05 2.62 2.65 96 1017.0
20260502015714 58 27 5.0 11.0 0.05 2.62 2.65 96 1016.9
20260502015612 58 338 4.0 11.0 0.05 2.62 2.65 96 1017.0
20260502015513 58 14 4.0 16.0 0.06 2.62 2.65 96 1016.9
20260502015414 58 0 5.0 16.0 0.06 2.62 2.65 96 1017.0
20260502015312 58 0 6.0 16.0 0.06 2.62 2.65 96 1017.0
20260502015212 58 16 6.0 16.0 0.06 2.62 2.65 96 1017.0
20260502015112 58 4 6.0 16.0 0.06 2.62 2.65 96 1017.0
20260502015013 58 17 8.0 16.0 0.06 2.62 2.65 96 1016.9
20260502014913 58 17 8.0 16.0 0.06 2.62 2.65 96 1016.9
20260502014804 58 17 8.0 16.0 0.07 2.62 2.65 96 1016.8
20260502014704 58 0 7.0 16.0 0.07 2.62 2.65 96 1016.7
20260502014603 58 0 6.0 16.0 0.07 2.62 2.65 96 1016.7
20260502014503 58 316 5.0 12.0 0.07 2.62 2.65 96 1016.5
20260502014402 58 14 6.0 12.0 0.07 2.62 2.65 96 1016.5
20260502014303 58 31 6.0 12.0 0.08 2.62 2.65 96 1016.4
20260502014203 58 337 5.0 12.0 0.08 2.62 2.65 96 1016.4
20260502014103 58 353 5.0 12.0 0.08 2.62 2.65 96 1016.3
20260502014004 58 13 5.0 12.0 0.08 2.62 2.65 97 1016.3
20260502013903 58 14 6.0 12.0 0.08 2.62 2.65 97 1016.4
20260502013803 58 350 5.0 14.0 0.08 2.62 2.65 96 1016.2
20260502013702 58 17 3.0 14.0 0.08 2.62 2.65 96 1016.1
20260502013603 58 18 3.0 14.0 0.09 2.62 2.64 96 1016.1
20260502013504 58 18 5.0 14.0 0.08 2.62 2.64 96 1016.1
20260502013402 58 14 6.0 14.0 0.08 2.62 2.64 96 1016.1
20260502013303 58 39 7.0 14.0 0.08 2.62 2.64 96 1016.1
20260502013203 58 27 7.0 14.0 0.08 2.62 2.64 96 1016.0
20260502013102 58 23 8.0 14.0 0.08 2.62 2.64 96 1015.9
20260502013005 58 14 8.0 14.0 0.08 2.62 2.63 96 1015.9
20260502012902 58 18 7.0 14.0 0.07 2.62 2.63 96 1015.8
20260502012803 58 25 6.0 13.0 0.08 2.62 2.63 96 1015.9
20260502012703 58 52 6.0 13.0 0.08 2.62 2.63 96 1015.9
20260502012603 58 47 5.0 13.0 0.08 2.62 2.63 96 1016.0
20260502012502 58 52 6.0 13.0 0.08 2.62 2.63 96 1016.1
20260502012402 58 44 8.0 13.0 0.08 2.62 2.62 96 1016.1
20260502012306 58 35 9.0 13.0 0.08 2.62 2.62 96 1016.1
20260502012204 58 47 9.0 13.0 0.08 2.62 2.61 96 1016.1
20260502012103 58 18 8.0 13.0 0.08 2.62 2.61 96 1016.2
20260502012003 58 17 8.0 13.0 0.07 2.62 2.61 96 1016.1
20260502011904 58 35 7.0 13.0 0.07 2.62 2.61 96 1016.2
20260502011804 58 11 8.0 13.0 0.07 2.62 2.61 96 1016.3
20260502011701 59 8 8.0 13.0 0.07 2.62 2.61 96 1016.4
20260502011603 59 44 6.0 11.0 0.08 2.62 2.61 96 1016.5
20260502011503 59 6 4.0 9.0 0.08 2.62 2.61 96 1016.7
20260502011402 59 4 4.0 9.0 0.08 2.62 2.61 96 1016.8
20260502011303 59 353 4.0 9.0 0.07 2.62 2.60 96 1016.7
20260502011202 59 319 5.0 9.0 0.08 2.62 2.60 96 1016.7
20260502011102 59 340 6.0 9.0 0.08 2.62 2.60 96 1016.7
20260502011002 59 17 5.0 9.0 0.08 2.62 2.60 96 1016.7
20260502010904 59 8 4.0 7.0 0.08 2.62 2.60 97 1016.7
20260502010803 59 0 4.0 7.0 0.09 2.62 2.60 97 1016.6
20260502010702 59 0 3.0 7.0 0.09 2.62 2.60 96 1016.6
20260502010604 59 212 2.0 7.0 0.09 2.62 2.60 96 1016.3
20260502010505 58 0 2.0 7.0 0.09 2.62 2.60 96 1016.3
20260502010403 58 0 4.0 11.0 0.10 2.62 2.60 96 1016.2
20260502010302 58 0 4.0 12.0 0.10 2.62 2.60 96 1016.0
20260502010203 58 344 5.0 12.0 0.10 2.62 2.60 96 1016.1
20260502010004 58 0 4.0 14.0 0.10 2.52 2.60 96 1015.9
20260502005904 58 0 5.0 14.0 0.10 2.52 2.60 96 1015.8
20260502005802 58 0 4.0 14.0 0.10 2.52 2.60 96 1015.7
20260502005702 58 23 4.0 14.0 0.10 2.52 2.60 96 1015.5
20260502005602 58 38 6.0 14.0 0.10 2.52 2.59 96 1015.5
20260502005503 58 27 8.0 14.0 0.09 2.52 2.59 96 1015.3
20260502005402 58 31 6.0 14.0 0.09 2.52 2.59 96 1015.3
20260502005305 58 18 5.0 14.0 0.09 2.52 2.59 96 1015.2
20260502005203 58 48 6.0 14.0 0.09 2.52 2.59 96 1015.1
20260502005102 58 21 6.0 14.0 0.09 2.52 2.59 96 1015.1
20260502005003 58 63 7.0 14.0 0.09 2.52 2.59 96 1015.1
20260502004903 58 49 7.0 14.0 0.10 2.52 2.58 96 1015.1
20260502004802 58 7 8.0 13.0 0.09 2.52 2.58 96 1015.1
20260502004702 58 47 7.0 13.0 0.09 2.52 2.58 96 1015.0
20260502004602 59 30 6.0 13.0 0.09 2.52 2.58 96 1015.0
20260502004504 59 25 8.0 13.0 0.09 2.52 2.58 96 1015.0
20260502004403 59 20 9.0 13.0 0.09 2.52 2.57 96 1015.0
20260502004303 59 37 7.0 13.0 0.08 2.52 2.57 96 1015.1
20260502004202 59 0 8.0 13.0 0.09 2.52 2.57 96 1015.2
20260502004102 59 56 9.0 13.0 0.09 2.52 2.57 96 1015.3
20260502004005 59 13 7.0 13.0 0.09 2.52 2.57 96 1015.3
20260502003902 59 4 6.0 11.0 0.09 2.52 2.57 96 1015.4
20260502003802 59 52 7.0 11.0 0.09 2.52 2.57 96 1015.3
20260502003703 59 24 7.0 11.0 0.09 2.52 2.56 96 1015.2
20260502003602 59 11 6.0 11.0 0.08 2.52 2.56 96 1015.2
20260502003502 59 0 5.0 11.0 0.08 2.52 2.56 96 1015.2
20260502003403 59 357 4.0 11.0 0.09 2.52 2.56 96 1015.2
20260502003302 59 23 4.0 11.0 0.09 2.52 2.56 96 1015.2
20260502003203 59 0 5.0 11.0 0.09 2.52 2.56 96 1015.2
20260502003103 59 7 6.0 11.0 0.09 2.52 2.56 96 1015.2
20260502003004 59 13 6.0 11.0 0.09 2.52 2.56 96 1015.2
20260502002902 59 13 4.0 11.0 0.10 2.52 2.55 96 1015.2
20260502002803 59 24 3.0 11.0 0.10 2.52 2.55 96 1015.0
20260502002702 59 23 4.0 12.0 0.10 2.52 2.55 96 1014.9
20260502002602 59 54 6.0 12.0 0.11 2.52 2.55 96 1014.8
20260502002503 59 16 7.0 13.0 0.12 2.52 2.55 96 1014.8
20260502002402 59 357 5.0 14.0 0.13 2.52 2.54 96 1014.9
20260502002305 59 23 5.0 14.0 0.14 2.52 2.54 96 1014.8
20260502002202 59 47 6.0 14.0 0.16 2.52 2.54 96 1014.9
20260502002103 59 59 6.0 14.0 0.18 2.52 2.54 96 1014.8
20260502002004 59 13 6.0 14.0 0.19 2.52 2.54 96 1014.8
20260502001903 59 54 8.0 14.0 0.20 2.52 2.54 96 1014.9
20260502001802 59 0 8.0 14.0 0.21 2.52 2.54 96 1014.8
20260502001702 59 17 7.0 14.0 0.22 2.52 2.53 96 1014.8
20260502001602 59 4 7.0 14.0 0.21 2.52 2.53 96 1014.8
20260502001503 59 54 6.0 14.0 0.21 2.52 2.53 96 1014.9
20260502001403 59 42 6.0 12.0 0.21 2.52 2.53 96 1014.9
20260502001303 59 31 6.0 12.0 0.22 2.52 2.52 96 1014.9
20260502001203 59 28 6.0 11.0 0.21 2.52 2.52 96 1014.9
20260502001104 59 45 5.0 11.0 0.21 2.52 2.52 96 1014.9
20260502001002 59 44 5.0 9.0 0.21 2.52 2.52 96 1015.1
20260502000902 59 21 6.0 9.0 0.21 2.52 2.51 96 1015.1
20260502000803 59 16 5.0 7.0 0.20 2.52 2.51 96 1015.3
20260502000703 59 48 5.0 10.0 0.20 2.52 2.51 96 1015.5
20260502000604 59 16 5.0 10.0 0.20 2.52 2.51 96 1015.7
20260502000502 59 17 4.0 10.0 0.20 2.52 2.50 96 1015.8
20260502000403 59 351 3.0 10.0 0.19 2.52 2.50 96 1015.8
20260502000303 59 0 3.0 10.0 0.19 2.52 2.50 96 1015.9
20260502000203 59 350 2.0 10.0 0.19 2.52 2.50 96 1015.9
20260502000003 59 7 3.0 10.0 0.19 2.33 2.50 96 1015.6
20260501235902 59 8 4.0 15.0 0.19 2.33 2.50 96 1015.5
20260501235803 59 49 4.0 16.0 0.19 2.33 2.50 96 1015.4
20260501235702 59 11 5.0 16.0 0.19 2.33 2.50 96 1015.3
20260501235603 59 37 5.0 16.0 0.19 2.33 2.50 96 1015.3
20260501235503 59 34 5.0 16.0 0.19 2.33 2.50 96 1015.0
20260501235401 59 0 4.0 16.0 0.19 2.33 2.50 96 1015.0
20260501235305 59 0 2.0 16.0 0.19 2.33 2.50 96 1014.8
20260501235202 59 35 3.0 16.0 0.19 2.33 2.50 96 1014.5
20260501235104 59 62 7.0 16.0 0.19 2.33 2.50 96 1014.1
20260501235004 59 52 8.0 16.0 0.19 2.33 2.49 96 1013.9
20260501234902 59 58 5.0 16.0 0.18 2.33 2.49 96 1013.5
20260501234802 59 79 5.0 15.0 0.18 2.33 2.49 96 1013.2
20260501234703 59 75 6.0 15.0 0.18 2.33 2.49 96 1013.1
20260501234603 59 99 6.0 13.0 0.18 2.33 2.49 96 1013.1
20260501234501 59 63 6.0 13.0 0.18 2.33 2.49 96 1013.3
20260501234400 59 123 6.0 12.0 0.18 2.33 2.49 96 1013.4
20260501234259 59 79 6.0 12.0 0.18 2.33 2.48 96 1013.6
20260501234200 59 65 5.0 12.0 0.17 2.33 2.48 96 1013.9
20260501234057 59 94 4.0 12.0 0.17 2.33 2.48 96 1014.0
20260501233954 59 85 4.0 12.0 0.17 2.33 2.48 96 1014.1
20260501233852 59 96 4.0 12.0 0.17 2.33 2.48 96 1014.2
20260501233749 59 71 5.0 12.0 0.17 2.33 2.48 96 1014.2
20260501233641 59 54 4.0 14.0 0.17 2.33 2.48 96 1014.3
20260501233542 59 72 5.0 14.0 0.17 2.33 2.48 96 1014.3
20260501233440 59 79 6.0 14.0 0.17 2.33 2.47 96 1014.5
20260501233339 59 82 5.0 14.0 0.16 2.33 2.47 96 1014.5
20260501233237 59 23 4.0 14.0 0.16 2.33 2.47 96 1014.6
20260501233136 59 55 4.0 14.0 0.16 2.33 2.47 96 1014.7
20260501233034 59 61 5.0 14.0 0.16 2.33 2.47 96 1014.7
20260501232931 60 48 6.0 14.0 0.15 2.33 2.46 96 1014.6
20260501232832 60 23 6.0 14.0 0.15 2.33 2.45 96 1014.5
20260501232730 60 32 5.0 13.0 0.14 2.33 2.45 96 1014.5
20260501232633 60 35 5.0 14.0 0.13 2.33 2.44 96 1014.4
20260501232532 60 56 6.0 14.0 0.12 2.33 2.43 96 1014.4
20260501232432 60 49 6.0 14.0 0.12 2.33 2.42 96 1014.4
20260501232332 60 34 6.0 14.0 0.10 2.33 2.40 96 1014.5
20260501232233 60 62 7.0 14.0 0.08 2.33 2.38 96 1014.6
20260501232131 60 47 8.0 14.0 0.06 2.33 2.36 96 1014.7
20260501232031 60 28 7.0 14.0 0.05 2.33 2.35 96 1014.9
20260501231933 60 18 6.0 14.0 0.03 2.33 2.34 96 1014.9
20260501231831 60 16 8.0 14.0 0.02 2.33 2.33 96 1014.9
20260501231730 60 47 9.0 14.0 0.02 2.33 2.32 96 1014.9
20260501231629 60 58 8.0 13.0 0.01 2.33 2.32 96 1015.0
20260501231528 60 55 6.0 12.0 0.01 2.33 2.32 96 1015.1
20260501231427 60 56 5.0 12.0 0.01 2.33 2.32 96 1015.2
20260501231325 60 17 5.0 12.0 0.01 2.33 2.31 96 1015.3
20260501231223 60 0 5.0 12.0 0.00 2.33 2.31 96 1015.4
20260501231123 60 14 4.0 12.0 0.00 2.33 2.31 96 1015.2
20260501231020 60 61 4.0 12.0 0.00 2.33 2.31 96 1015.1
20260501230920 60 58 4.0 12.0 0.01 2.33 2.31 96 1015.1
20260501230817 60 52 4.0 12.0 0.01 2.33 2.31 96 1015.0
20260501230716 60 63 7.0 12.0 0.01 2.33 2.31 96 1014.9
20260501230617 60 65 3.0 12.0 0.01 2.33 2.31 96 1014.8
20260501230516 60 16 3.0 12.0 0.01 2.33 2.31 96 1014.7
20260501230416 60 68 4.0 12.0 0.01 2.33 2.31 96 1014.5
20260501230314 60 63 4.0 12.0 0.01 2.33 2.31 96 1014.5
20260501230213 60 61 5.0 12.0 0.01 2.33 2.31 96 1014.4
20260501230110 60 41 4.0 12.0 0.01 2.33 2.31 96 1014.3
20260501230011 60 59 4.0 12.0 0.01 2.32 2.31 96 1014.1
20260501225908 60 61 5.0 12.0 0.01 2.32 2.31 96 1014.1
20260501225808 60 97 6.0 12.0 0.01 2.32 2.31 96 1014.0
20260501225709 60 47 6.0 10.0 0.01 2.32 2.31 96 1013.9
20260501225605 60 104 5.0 9.0 0.02 2.32 2.31 96 1013.7
20260501225504 60 116 5.0 10.0 0.02 2.32 2.31 96 1013.6
20260501225404 60 68 3.0 10.0 0.02 2.32 2.31 96 1013.4
20260501225306 0 0.0 13.0 0.02 2.32 2.31 1013.5
20260501225203 0 0.0 14.0 0.02 2.32 2.31 1013.4
20260501225103 0 0.0 14.0 0.02 2.32 2.31 1013.5
20260501225003 60 25 8.0 14.0 0.02 2.32 2.31 96 1013.6
20260501224903 60 25 8.0 14.0 0.03 2.32 2.31 96 1013.6
20260501224803 60 25 8.0 14.0 0.03 2.32 2.31 96 1013.6
20260501224703 60 25 8.0 14.0 0.03 2.32 2.31 96 1013.7
20260501224604 60 25 8.0 14.0 0.03 2.32 2.31 96 1013.8
20260501224502 60 20 8.0 14.0 0.03 2.32 2.31 96 1013.9
20260501224402 60 55 9.0 14.0 0.03 2.32 2.31 96 1013.9
20260501224302 60 17 9.0 14.0 0.04 2.32 2.31 96 1013.9
20260501224203 61 65 9.0 14.0 0.04 2.32 2.31 96 1013.8
20260501224103 61 83 8.0 12.0 0.04 2.32 2.31 96 1013.9
20260501224004 61 59 4.0 15.0 0.04 2.32 2.31 96 1014.0
20260501223903 61 59 4.0 15.0 0.05 2.32 2.31 96 1013.9
20260501223803 61 59 4.0 15.0 0.05 2.32 2.31 96 1013.8
20260501223703 61 31 3.0 15.0 0.05 2.32 2.31 96 1013.7
20260501223603 61 51 7.0 15.0 0.05 2.32 2.31 96 1013.7
20260501223503 61 28 7.0 15.0 0.06 2.32 2.31 96 1013.6
20260501223403 61 34 4.0 15.0 0.06 2.32 2.31 96 1013.6
20260501223302 61 58 4.0 15.0 0.06 2.32 2.31 96 1013.5
20260501223204 61 63 6.0 15.0 0.06 2.32 2.31 96 1013.6
20260501223103 61 51 6.0 15.0 0.07 2.32 2.31 96 1013.8
20260501223004 61 42 3.0 17.0 0.07 2.32 2.31 96 1013.7
20260501222904 61 59 4.0 17.0 0.07 2.32 2.31 96 1013.7
20260501222802 61 39 6.0 17.0 0.07 2.32 2.31 96 1013.7
20260501222703 61 68 6.0 17.0 0.08 2.32 2.31 96 1013.8
20260501222602 61 59 6.0 17.0 0.08 2.32 2.31 96 1013.8
20260501222504 61 58 6.0 17.0 0.09 2.32 2.31 96 1013.9
20260501222402 61 56 7.0 17.0 0.09 2.32 2.31 96 1013.9
20260501222305 61 54 8.0 17.0 0.09 2.32 2.31 96 1013.9
20260501222201 61 61 8.0 17.0 0.09 2.32 2.31 96 1014.0
20260501222103 61 78 8.0 17.0 0.09 2.32 2.31 96 1014.0
20260501222003 61 61 6.0 14.0 0.10 2.32 2.31 96 1014.2
20260501221902 61 89 6.0 14.0 0.10 2.32 2.31 96 1014.2
20260501221803 61 51 6.0 14.0 0.10 2.32 2.31 96 1014.3
20260501221702 61 56 6.0 14.0 0.10 2.32 2.31 96 1014.3
20260501221603 61 54 6.0 14.0 0.10 2.32 2.31 96 1014.5
20260501221505 61 51 6.0 14.0 0.11 2.32 2.31 96 1014.5
20260501221403 61 55 6.0 14.0 0.11 2.32 2.31 96 1014.5
20260501221302 61 54 6.0 14.0 0.11 2.32 2.31 96 1014.5
20260501221204 61 32 6.0 14.0 0.11 2.32 2.31 96 1014.5
20260501221102 61 35 6.0 14.0 0.12 2.32 2.31 96 1014.4
20260501221002 61 59 6.0 14.0 0.12 2.32 2.30 96 1014.4
20260501220902 61 28 6.0 14.0 0.11 2.32 2.30 97 1014.3
20260501220803 61 30 7.0 14.0 0.11 2.32 2.30 97 1014.3
20260501220701 61 34 7.0 12.0 0.11 2.32 2.30 97 1014.2
20260501220600 61 52 8.0 12.0 0.12 2.32 2.30 97 1014.1
20260501220459 61 55 8.0 12.0 0.12 2.32 2.30 97 1014.1
20260501220357 61 39 7.0 14.0 0.12 2.32 2.30 97 1014.2
20260501220256 61 20 6.0 14.0 0.12 2.32 2.30 97 1014.2
20260501220155 61 62 5.0 14.0 0.13 2.32 2.30 97 1014.4
20260501220052 61 56 6.0 14.0 0.13 2.32 2.30 97 1014.4
20260501215951 61 38 7.0 14.0 0.14 2.18 2.30 97 1014.5
20260501215849 61 47 7.0 14.0 0.14 2.18 2.30 97 1014.5
20260501215744 61 56 6.0 14.0 0.15 2.18 2.30 97 1014.5
20260501215643 61 16 6.0 14.0 0.15 2.18 2.29 97 1014.5
20260501215541 61 35 7.0 14.0 0.15 2.18 2.29 97 1014.5
20260501215441 61 24 9.0 14.0 0.15 2.18 2.29 97 1014.4
20260501215338 61 1 8.0 13.0 0.16 2.18 2.29 97 1014.4
20260501215238 61 11 8.0 13.0 0.16 2.18 2.29 97 1014.3
20260501215135 61 71 6.0 13.0 0.17 2.18 2.29 97 1014.3
20260501215034 61 52 5.0 13.0 0.17 2.18 2.29 97 1014.3
20260501214932 61 59 5.0 13.0 0.17 2.18 2.28 97 1014.3
20260501214832 61 25 6.0 13.0 0.16 2.18 2.28 97 1014.3
20260501214731 61 44 7.0 13.0 0.17 2.18 2.28 97 1014.2
20260501214631 61 51 7.0 13.0 0.17 2.18 2.28 97 1014.1
20260501214532 61 39 8.0 13.0 0.17 2.18 2.28 97 1014.1
20260501214432 61 20 7.0 13.0 0.17 2.18 2.28 97 1014.2
20260501214332 61 41 6.0 11.0 0.17 2.18 2.27 97 1014.1
20260501214232 61 58 5.0 11.0 0.16 2.18 2.27 97 1014.2
20260501214131 61 59 5.0 11.0 0.16 2.18 2.27 97 1014.3
20260501214032 61 51 4.0 11.0 0.16 2.18 2.27 97 1014.4
20260501213932 61 41 4.0 11.0 0.16 2.18 2.26 97 1014.6
20260501213832 61 51 6.0 11.0 0.16 2.18 2.26 97 1014.6
20260501213731 61 59 6.0 11.0 0.16 2.18 2.26 97 1014.6
20260501213635 61 61 4.0 11.0 0.16 2.18 2.26 97 1014.7
20260501213515 61 56 4.0 11.0 0.16 2.18 2.25 97 1014.7
20260501213413 61 28 5.0 11.0 0.16 2.18 2.25 97 1014.6
20260501213313 61 1 6.0 11.0 0.17 2.18 2.25 97 1014.6
20260501213208 61 39 5.0 11.0 0.18 2.18 2.24 97 1014.6
20260501213105 61 42 5.0 11.0 0.18 2.18 2.24 97 1014.6
20260501213005 61 17 6.0 11.0 0.19 2.18 2.24 97 1014.6
20260501212904 61 71 5.0 11.0 0.19 2.18 2.24 97 1014.5
20260501212804 61 61 5.0 10.0 0.20 2.18 2.23 97 1014.5
20260501212705 61 38 6.0 10.0 0.19 2.18 2.23 97 1014.5
20260501212604 61 42 6.0 10.0 0.20 2.18 2.22 97 1014.4
20260501212505 61 39 5.0 12.0 0.20 2.18 2.22 97 1014.3
20260501212404 61 63 5.0 12.0 0.20 2.18 2.22 97 1014.2
20260501212306 61 80 5.0 12.0 0.20 2.18 2.22 97 1014.1
20260501212205 61 32 6.0 12.0 0.20 2.18 2.22 97 1014.0
20260501212105 61 62 5.0 12.0 0.20 2.18 2.21 97 1013.9
20260501212005 61 75 3.0 12.0 0.19 2.18 2.21 97 1013.7
20260501211904 61 45 4.0 15.0 0.19 2.18 2.21 97 1013.6
20260501211804 61 61 5.0 18.0 0.19 2.18 2.21 97 1013.5
20260501211704 61 61 5.0 18.0 0.20 2.18 2.21 97 1013.4
20260501211604 61 89 6.0 18.0 0.20 2.18 2.21 97 1013.3
20260501211504 61 65 5.0 18.0 0.19 2.18 2.20 97 1013.4
20260501211404 61 66 4.0 18.0 0.19 2.18 2.20 97 1013.5
20260501211304 61 47 4.0 18.0 0.19 2.18 2.20 97 1013.5
20260501211204 61 38 6.0 18.0 0.19 2.18 2.19 97 1013.4
20260501211107 61 23 8.0 18.0 0.18 2.18 2.19 97 1013.5
20260501211005 61 75 9.0 18.0 0.18 2.18 2.19 97 1013.3
20260501210904 61 6 8.0 18.0 0.18 2.18 2.19 97 1013.2
20260501210805 61 23 7.0 18.0 0.18 2.18 2.19 97 1013.1
20260501210705 61 51 7.0 18.0 0.18 2.18 2.18 97 1012.9
20260501210604 61 17 7.0 18.0 0.17 2.18 2.18 97 1012.9
20260501210504 61 59 6.0 18.0 0.17 2.18 2.18 97 1012.9
20260501210405 61 58 6.0 18.0 0.17 2.18 2.18 97 1012.9
20260501210305 61 52 6.0 18.0 0.17 2.18 2.17 97 1012.9
20260501210203 61 48 6.0 18.0 0.16 2.18 2.17 97 1012.9
20260501210106 61 14 8.0 18.0 0.16 2.18 2.16 97 1012.7
20260501210005 61 49 9.0 18.0 0.15 2.03 2.16 97 1012.6
20260501205905 61 21 6.0 14.0 0.15 2.03 2.15 97 1012.5
20260501205805 61 56 6.0 14.0 0.14 2.03 2.15 97 1012.5
20260501205704 61 58 6.0 14.0 0.14 2.03 2.15 97 1012.5
20260501205605 61 44 7.0 14.0 0.14 2.03 2.14 97 1012.5
20260501205503 61 61 7.0 14.0 0.13 2.03 2.14 97 1012.4
20260501205405 61 41 7.0 13.0 0.13 2.03 2.14 97 1012.5
20260501205306 61 59 9.0 13.0 0.12 2.03 2.13 97 1012.6
20260501205203 61 20 8.0 13.0 0.12 2.03 2.12 97 1012.7
20260501205105 61 28 7.0 12.0 0.11 2.03 2.12 97 1012.9
20260501205004 61 59 5.0 11.0 0.11 2.03 2.12 97 1013.1
20260501204903 61 52 5.0 10.0 0.11 2.03 2.12 97 1013.3
20260501204803 62 49 5.0 10.0 0.11 2.03 2.12 97 1013.5
20260501204705 62 45 4.0 10.0 0.10 2.03 2.11 97 1013.7
20260501204603 61 30 5.0 10.0 0.10 2.03 2.11 97 1013.7
20260501204503 62 51 6.0 10.0 0.10 2.03 2.11 97 1013.8
20260501204403 62 21 6.0 10.0 0.10 2.03 2.11 97 1013.9
20260501204304 62 10 4.0 10.0 0.10 2.03 2.11 97 1014.0
20260501204203 62 47 4.0 10.0 0.11 2.03 2.11 97 1013.9
20260501204103 62 0 4.0 10.0 0.11 2.03 2.11 97 1013.9
20260501204005 62 55 4.0 11.0 0.11 2.03 2.11 97 1013.7
20260501203903 62 21 4.0 11.0 0.11 2.03 2.10 97 1013.7
20260501203804 62 42 5.0 11.0 0.10 2.03 2.10 97 1013.5
20260501203704 62 27 6.0 11.0 0.11 2.03 2.10 97 1013.5
20260501203604 62 17 5.0 11.0 0.11 2.03 2.09 97 1013.6
20260501203504 62 56 4.0 11.0 0.11 2.03 2.08 97 1013.8
20260501203404 62 23 5.0 11.0 0.11 2.03 2.08 97 1013.8
20260501203304 62 16 5.0 11.0 0.12 2.03 2.07 97 1013.8
20260501203204 62 58 6.0 11.0 0.11 2.03 2.06 97 1013.9
20260501203104 62 51 8.0 11.0 0.10 2.03 2.05 97 1013.7
20260501203004 62 48 7.0 11.0 0.10 2.03 2.05 97 1013.7
20260501202903 62 21 5.0 11.0 0.10 2.03 2.04 97 1013.7
20260501202803 62 4 5.0 10.0 0.09 2.03 2.03 97 1013.7
20260501202703 62 8 6.0 11.0 0.09 2.03 2.03 97 1013.8
20260501202605 62 14 5.0 14.0 0.08 2.03 2.02 97 1013.8
20260501202503 62 24 4.0 14.0 0.07 2.03 2.02 97 1013.6
20260501202359 62 24 5.0 14.0 0.07 2.03 2.02 97 1013.5
20260501202255 62 13 5.0 14.0 0.07 2.03 2.02 97 1013.3
20260501202155 62 18 5.0 14.0 0.07 2.03 2.02 97 1013.2
20260501202052 62 24 5.0 14.0 0.07 2.03 2.02 97 1013.0
20260501201951 62 14 6.0 14.0 0.07 2.03 2.02 97 1013.0
20260501201850 62 31 7.0 14.0 0.07 2.03 2.02 97 1013.0
20260501201748 62 48 8.0 14.0 0.07 2.03 2.01 97 1012.9
20260501201647 62 21 8.0 14.0 0.06 2.03 2.01 97 1012.7
20260501201546 62 24 8.0 14.0 0.06 2.03 2.01 97 1012.7
20260501201444 62 37 8.0 12.0 0.06 2.03 2.01 97 1012.6
20260501201343 62 47 6.0 12.0 0.06 2.03 2.01 97 1012.6
20260501201239 62 68 6.0 9.0 0.06 2.03 2.01 97 1012.6
20260501201138 62 51 4.0 9.0 0.06 2.03 2.01 97 1012.7
20260501201037 62 63 4.0 9.0 0.06 2.03 2.01 97 1012.7
20260501200931 62 55 4.0 9.0 0.06 2.03 2.01 97 1012.8
20260501200831 62 56 4.0 9.0 0.06 2.03 2.01 97 1012.8
20260501200732 62 51 4.0 9.0 0.06 2.03 2.01 97 1012.9
20260501200631 62 55 4.0 9.0 0.06 2.03 2.01 97 1013.0
20260501200529 62 45 4.0 9.0 0.06 2.03 2.01 97 1013.1
20260501200428 62 75 4.0 9.0 0.06 2.03 2.01 97 1013.0
20260501200326 62 54 5.0 9.0 0.07 2.03 2.01 97 1012.9
20260501200224 62 75 5.0 9.0 0.07 2.03 2.01 97 1012.9
20260501200122 62 24 4.0 9.0 0.07 2.03 2.01 97 1012.7
20260501200021 62 62 4.0 10.0 0.07 1.96 2.01 97 1012.6
20260501195920 62 73 4.0 10.0 0.07 1.96 2.01 97 1012.6
20260501195818 62 62 5.0 10.0 0.07 1.96 2.01 97 1012.6
20260501195715 62 35 4.0 10.0 0.08 1.96 2.01 97 1012.7
20260501195615 62 39 4.0 10.0 0.09 1.96 2.01 97 1012.7
20260501195514 62 45 3.0 10.0 0.10 1.96 2.01 97 1012.7
20260501195410 62 30 5.0 10.0 0.12 1.96 2.01 97 1012.7
20260501195307 62 48 6.0 10.0 0.12 1.96 2.01 97 1012.6
20260501195205 62 20 5.0 10.0 0.12 1.96 2.01 97 1012.5
20260501195104 62 51 4.0 10.0 0.12 1.96 2.01 97 1012.5
20260501195004 62 39 3.0 10.0 0.12 1.96 2.01 97 1012.5
20260501194905 62 38 3.0 10.0 0.13 1.96 2.01 97 1012.6
20260501194803 62 31 4.0 10.0 0.13 1.96 2.01 97 1012.6
20260501194703 62 39 3.0 10.0 0.13 1.96 2.01 97 1012.6
20260501194603 62 38 3.0 10.0 0.13 1.96 2.01 97 1012.5
20260501194505 62 61 5.0 10.0 0.13 1.96 2.01 97 1012.3
20260501194403 62 54 6.0 10.0 0.14 1.96 2.01 97 1012.2
20260501194302 62 20 5.0 10.0 0.14 1.96 2.00 97 1012.1
20260501194202 62 10 4.0 7.0 0.13 1.96 2.00 97 1012.3
20260501194104 62 27 3.0 7.0 0.14 1.96 2.00 97 1012.4
20260501194002 62 54 2.0 7.0 0.14 1.96 2.00 97 1012.5
20260501193902 62 54 2.0 7.0 0.14 1.96 2.00 97 1012.5
20260501193804 62 58 3.0 9.0 0.15 1.96 1.99 97 1012.5
20260501193702 62 59 3.0 9.0 0.14 1.96 1.99 97 1012.4
20260501193602 62 32 3.0 9.0 0.14 1.96 1.98 97 1012.5
20260501193505 62 10 3.0 9.0 0.13 1.96 1.97 97 1012.5
20260501193352 62 14 4.0 9.0 0.12 1.96 1.96 97 1012.6
20260501193251 62 14 4.0 9.0 0.11 1.96 1.96 97 1012.6
20260501193148 62 8 3.0 9.0 0.11 1.96 1.96 97 1012.3
20260501193048 62 52 4.0 9.0 0.10 1.96 1.95 97 1012.2
20260501192947 62 47 5.0 9.0 0.11 1.96 1.95 97 1012.2
20260501192845 62 44 4.0 7.0 0.11 1.96 1.95 97 1012.3
20260501192743 62 35 4.0 7.0 0.12 1.96 1.95 97 1012.5
20260501192642 62 42 5.0 7.0 0.13 1.96 1.95 97 1012.7
20260501192541 62 28 4.0 7.0 0.14 1.96 1.95 97 1012.9
20260501192440 62 0 2.0 9.0 0.15 1.96 1.95 97 1012.8
20260501192337 62 48 2.0 9.0 0.16 1.96 1.95 97 1012.9
20260501192236 62 48 2.0 9.0 0.17 1.96 1.95 97 1012.8
20260501192135 62 48 3.0 9.0 0.18 1.96 1.95 97 1012.8
20260501192034 62 51 4.0 9.0 0.20 1.96 1.95 97 1012.8
20260501191933 62 48 5.0 9.0 0.21 1.96 1.95 97 1012.8
20260501191830 62 1 5.0 9.0 0.22 1.96 1.95 97 1012.9
20260501191728 62 13 4.0 11.0 0.22 1.96 1.95 97 1012.9
20260501191627 62 52 4.0 11.0 0.22 1.96 1.95 97 1012.8
20260501191524 62 51 5.0 11.0 0.22 1.96 1.95 97 1012.8
20260501191425 62 45 4.0 11.0 0.22 1.96 1.95 97 1012.9
20260501191322 62 20 4.0 11.0 0.22 1.96 1.95 97 1012.8
20260501191222 62 17 4.0 11.0 0.23 1.96 1.95 97 1012.6
20260501191120 62 61 5.0 11.0 0.23 1.96 1.95 97 1012.3
20260501191018 62 52 5.0 11.0 0.23 1.96 1.95 97 1012.0
20260501190916 62 65 6.0 11.0 0.23 1.96 1.95 97 1011.8
20260501190815 62 86 6.0 11.0 0.24 1.96 1.95 97 1011.8
20260501190715 62 56 5.0 9.0 0.24 1.96 1.95 97 1012.0
20260501190612 62 66 5.0 9.0 0.24 1.96 1.95 97 1012.2
20260501190510 62 47 4.0 9.0 0.24 1.96 1.95 97 1012.4
20260501190410 62 18 2.0 6.0 0.25 1.96 1.94 97 1012.5
20260501190307 62 65 2.0 4.0 0.24 1.96 1.94 97 1012.7
20260501190207 62 65 2.0 4.0 0.25 1.96 1.94 97 1012.7
20260501190104 62 65 2.0 3.0 0.26 1.96 1.94 97 1012.8
20260501190003 62 76 2.0 3.0 0.27 1.69 1.94 97 1012.8
20260501185902 62 78 1.0 3.0 0.30 1.69 1.94 97 1012.8
20260501185802 62 78 0.0 3.0 0.31 1.69 1.94 97 1012.9
20260501185703 62 78 1.0 4.0 0.32 1.69 1.92 97 1013.0
20260501185602 62 78 1.0 4.0 0.33 1.69 1.91 97 1013.1
20260501185504 62 78 2.0 4.0 0.32 1.69 1.89 97 1013.0
20260501185403 62 69 2.0 4.0 0.31 1.69 1.88 97 1012.8
20260501185306 62 69 2.0 4.0 0.31 1.69 1.88 97 1012.5
20260501185202 62 69 2.0 4.0 0.32 1.69 1.88 97 1012.5
20260501185104 62 69 2.0 5.0 0.32 1.69 1.88 97 1012.7
20260501185004 62 69 2.0 5.0 0.32 1.69 1.88 97 1012.9
20260501184903 62 69 2.0 5.0 0.32 1.69 1.88 97 1013.0
20260501184802 62 68 2.0 6.0 0.32 1.69 1.88 97 1013.1
20260501184702 62 261 1.0 6.0 0.32 1.69 1.88 97 1013.3
20260501184602 62 264 1.0 6.0 0.32 1.69 1.88 97 1013.4
20260501184504 62 265 2.0 10.0 0.32 1.69 1.87 97 1013.5
20260501184403 62 265 3.0 10.0 0.32 1.69 1.87 96 1013.5
20260501184303 62 266 3.0 10.0 0.32 1.69 1.87 97 1013.4
20260501184203 62 268 3.0 10.0 0.32 1.69 1.86 96 1013.3
20260501184102 62 266 2.0 10.0 0.31 1.69 1.86 96 1013.0
20260501184003 62 35 2.0 10.0 0.31 1.69 1.86 96 1012.7
20260501183902 62 56 3.0 11.0 0.31 1.69 1.85 96 1012.3
20260501183803 62 94 3.0 11.0 0.30 1.69 1.85 96 1011.8
20260501183701 62 92 4.0 11.0 0.30 1.69 1.85 96 1011.6
20260501183602 62 66 4.0 11.0 0.30 1.69 1.85 96 1011.5
20260501183504 62 97 4.0 11.0 0.30 1.69 1.85 96 1011.5
20260501183402 62 94 4.0 11.0 0.31 1.69 1.85 96 1011.6
20260501183303 62 104 4.0 11.0 0.31 1.69 1.85 96 1011.6
20260501183202 62 62 4.0 11.0 0.31 1.69 1.85 96 1011.6
20260501183102 62 89 4.0 11.0 0.31 1.69 1.84 96 1011.6
20260501183003 62 49 5.0 11.0 0.32 1.69 1.84 96 1011.6
20260501182902 62 100 5.0 11.0 0.34 1.69 1.83 96 1011.6
20260501182802 62 76 4.0 11.0 0.33 1.69 1.83 96 1011.7
20260501182702 62 51 5.0 11.0 0.33 1.69 1.82 96 1011.6
20260501182603 62 93 5.0 11.0 0.32 1.69 1.81 96 1011.5
20260501182503 62 82 5.0 11.0 0.31 1.69 1.80 96 1011.4
20260501182401 62 99 5.0 11.0 0.30 1.69 1.78 96 1011.4
20260501182306 62 93 5.0 11.0 0.28 1.69 1.77 96 1011.4
20260501182202 62 72 5.0 11.0 0.27 1.69 1.76 96 1011.5
20260501182102 62 107 5.0 11.0 0.26 1.69 1.75 96 1011.7
20260501182002 62 71 4.0 11.0 0.26 1.69 1.74 96 1011.9
20260501181903 62 63 4.0 11.0 0.25 1.69 1.73 96 1012.1
20260501181802 62 68 4.0 11.0 0.24 1.69 1.73 96 1012.3
20260501181702 62 54 4.0 11.0 0.24 1.69 1.73 96 1012.4
20260501181604 62 72 4.0 12.0 0.24 1.69 1.73 96 1012.7
20260501181503 62 55 4.0 12.0 0.24 1.69 1.73 96 1012.9
20260501181403 62 48 3.0 12.0 0.24 1.69 1.73 96 1013.1
20260501181302 62 21 3.0 12.0 0.24 1.69 1.72 96 1013.2
20260501181205 62 56 4.0 12.0 0.23 1.69 1.72 96 1013.2
20260501181103 62 16 4.0 12.0 0.23 1.69 1.72 96 1013.0
20260501181003 62 38 4.0 12.0 0.24 1.69 1.72 96 1012.8
20260501180904 62 55 4.0 13.0 0.24 1.69 1.71 96 1012.7
20260501180802 62 30 7.0 13.0 0.23 1.69 1.71 96 1012.5
20260501180702 62 38 7.0 13.0 0.23 1.69 1.71 96 1012.3
20260501180602 62 10 6.0 13.0 0.23 1.69 1.71 96 1012.3